| time (UTC) | temp F | wind direction | speed MPH | gust MPH | rain 1hr in | rain 24hr in | rain mn in | humidity % | barometer mb |
| 20260503223108 | 54 | 304 | 1.0 | 2.0 | 0.00 | 0.26 | 0.00 | 76 | 1012.0 |
| 20260503222108 | 54 | 302 | 0.0 | 0.0 | 0.00 | 0.26 | 0.00 | 76 | 1012.0 |
| 20260503221107 | 54 | 304 | 0.0 | 0.0 | 0.00 | 0.26 | 0.00 | 79 | 1012.1 |
| 20260503220107 | 52 | 285 | 0.0 | 0.0 | 0.00 | 0.26 | 0.26 | 79 | 1012.2 |
| 20260503210108 | 52 | 223 | 1.0 | 2.0 | 0.00 | 0.26 | 0.26 | 80 | 1012.3 |
| 20260503205108 | 52 | 223 | 1.0 | 2.0 | 0.00 | 0.26 | 0.26 | 80 | 1012.3 |
| 20260503204108 | 53 | 222 | 0.0 | 0.0 | 0.00 | 0.26 | 0.26 | 78 | 1012.1 |
| 20260503203107 | 54 | 222 | 0.0 | 0.0 | 0.02 | 0.26 | 0.26 | 73 | 1011.8 |
| 20260503202107 | 55 | 222 | 0.0 | 0.0 | 0.02 | 0.26 | 0.26 | 73 | 1011.6 |
| 20260503201107 | 55 | 223 | 0.0 | 0.0 | 0.02 | 0.26 | 0.26 | 74 | 1011.5 |
| 20260503200106 | 54 | 223 | 0.0 | 0.0 | 0.02 | 0.26 | 0.26 | 73 | 1011.4 |
| 20260503195107 | 54 | 223 | 0.0 | 0.0 | 0.02 | 0.26 | 0.26 | 73 | 1011.4 |
| 20260503194108 | 55 | 224 | 0.0 | 0.0 | 0.02 | 0.26 | 0.26 | 72 | 1011.2 |
| 20260503193107 | 54 | 223 | 1.0 | 3.0 | 0.00 | 0.24 | 0.24 | 74 | 1011.5 |
| 20260503192107 | 55 | 222 | 0.0 | 0.0 | 0.00 | 0.24 | 0.24 | 73 | 1011.3 |
| 20260503191107 | 55 | 221 | 0.0 | 0.0 | 0.00 | 0.24 | 0.24 | 70 | 1011.1 |
| 20260503190108 | 55 | 221 | 0.0 | 0.0 | 0.00 | 0.24 | 0.24 | 71 | 1010.8 |
| 20260503185108 | 55 | 222 | 0.0 | 0.0 | 0.00 | 0.24 | 0.24 | 71 | 1010.6 |
| 20260503184108 | 56 | 222 | 0.0 | 0.0 | 0.00 | 0.24 | 0.24 | 70 | 1010.7 |
| 20260503183107 | 57 | 222 | 0.0 | 0.0 | 0.00 | 0.24 | 0.24 | 69 | 1010.6 |
| 20260503182107 | 56 | 221 | 0.0 | 0.0 | 0.00 | 0.26 | 0.24 | 69 | 1010.7 |
| 20260503181107 | 56 | 222 | 0.0 | 0.0 | 0.00 | 0.26 | 0.24 | 69 | 1010.7 |
| 20260503180108 | 57 | 221 | 0.0 | 0.0 | 0.00 | 0.26 | 0.24 | 68 | 1010.7 |
| 20260503175108 | 58 | 222 | 0.0 | 0.0 | 0.00 | 0.26 | 0.24 | 65 | 1010.5 |
| 20260503174108 | 57 | 222 | 0.0 | 0.0 | 0.00 | 0.26 | 0.24 | 65 | 1010.5 |
| 20260503173108 | 59 | 221 | 0.0 | 0.0 | 0.00 | 0.26 | 0.24 | 63 | 1010.2 |
| 20260503172106 | 60 | 221 | 0.0 | 0.0 | 0.00 | 0.26 | 0.24 | 64 | 1010.2 |
| 20260503171106 | 60 | 254 | 0.0 | 0.0 | 0.00 | 0.26 | 0.24 | 64 | 1010.1 |
| 20260503170107 | 60 | 254 | 0.0 | 1.0 | 0.00 | 0.26 | 0.24 | 63 | 1010.1 |
| 20260503160106 | 56 | 84 | 1.0 | 2.0 | 0.08 | 0.28 | 0.24 | 76 | 1010.9 |
| 20260503150610 | 58 | 228 | 0.0 | 0.0 | 0.02 | 0.33 | 0.16 | 75 | 1010.7 |
| 20260503130609 | 69 | 216 | 0.0 | 0.0 | 0.00 | 0.33 | 0.14 | 52 | 1011.3 |
| 20260503110609 | 56 | 92 | 0.0 | 0.0 | 0.06 | 0.49 | 0.14 | 81 | 1013.1 |
| 20260503081610 | 57 | 224 | 0.0 | 2.0 | 0.00 | 0.67 | 0.00 | 75 | 1013.1 |
| 20260503080610 | 56 | 222 | 0.0 | 2.0 | 0.00 | 0.67 | 0.00 | 78 | 1013.1 |
| 20260503072609 | 56 | 225 | 0.0 | 0.0 | 0.00 | 0.67 | 0.00 | 82 | 1013.1 |
| 20260503071610 | 54 | 226 | 0.0 | 0.0 | 0.00 | 0.67 | 0.00 | 84 | 1013.4 |
| 20260503070610 | 53 | 225 | 0.0 | 2.0 | 0.00 | 0.67 | 0.00 | 86 | 1013.9 |
| 20260503054610 | 54 | 125 | 0.0 | 0.0 | 0.00 | 0.67 | 0.00 | 80 | 1013.1 |
| 20260503053609 | 53 | 140 | 0.0 | 0.0 | 0.00 | 0.67 | 0.00 | 80 | 1013.1 |
| 20260503052609 | 54 | 160 | 0.0 | 0.0 | 0.00 | 0.67 | 0.00 | 79 | 1013.0 |
| 20260503051609 | 54 | 148 | 0.0 | 0.0 | 0.00 | 0.67 | 0.00 | 80 | 1013.0 |
| 20260503050610 | 54 | 148 | 0.0 | 0.0 | 0.00 | 0.67 | 0.00 | 79 | 1012.9 |
| 20260503045609 | 54 | 149 | 0.0 | 0.0 | 0.00 | 0.67 | 0.00 | 81 | 1013.0 |
| 20260503044609 | 54 | 161 | 0.0 | 0.0 | 0.00 | 0.67 | 0.00 | 81 | 1013.1 |
| 20260503043609 | 53 | 153 | 0.0 | 0.0 | 0.00 | 0.67 | 0.00 | 81 | 1013.1 |
| 20260503042609 | 53 | 135 | 0.0 | 0.0 | 0.00 | 0.67 | 0.00 | 81 | 1013.2 |
| 20260503041608 | 53 | 112 | 0.0 | 0.0 | 0.00 | 0.67 | 0.00 | 80 | 1013.1 |
| 20260503041242 | 53 | 112 | 0.0 | 0.0 | 0.00 | 0.67 | 0.00 | 80 | 1013.1 |
| 20260503040240 | 52 | 136 | 0.0 | 2.0 | 0.00 | 0.67 | 0.00 | 83 | 1013.4 |
| 20260503035241 | 53 | 187 | 0.0 | 0.0 | 0.00 | 0.67 | 0.00 | 84 | 1013.5 |
| 20260503034241 | 51 | 125 | 0.0 | 2.0 | 0.00 | 0.67 | 0.00 | 83 | 1013.8 |
| 20260503033241 | 52 | 142 | 1.0 | 3.0 | 0.00 | 0.67 | 0.00 | 84 | 1013.8 |
| 20260503032241 | 53 | 128 | 0.0 | 0.0 | 0.00 | 0.67 | 0.00 | 82 | 1013.6 |
| 20260503031241 | 53 | 128 | 0.0 | 1.0 | 0.00 | 0.67 | 0.00 | 81 | 1013.5 |
| 20260503030241 | 53 | 128 | 0.0 | 0.0 | 0.00 | 0.67 | 0.00 | 82 | 1013.5 |
| 20260503025312 | 53 | 129 | 0.0 | 0.0 | 0.00 | 0.67 | 0.00 | 82 | 1013.5 |
| 20260503024312 | 53 | 127 | 0.0 | 0.0 | 0.00 | 0.67 | 0.00 | 82 | 1013.6 |
| 20260503023314 | 53 | 125 | 0.0 | 0.0 | 0.00 | 0.67 | 0.00 | 81 | 1013.6 |
| 20260503022313 | 53 | 127 | 0.0 | 0.0 | 0.00 | 0.67 | 0.00 | 81 | 1013.6 |
| 20260503021313 | 53 | 127 | 0.0 | 1.0 | 0.00 | 0.67 | 0.00 | 82 | 1013.8 |
| 20260503020313 | 53 | 134 | 0.0 | 0.0 | 0.00 | 0.67 | 0.00 | 82 | 1013.8 |
| 20260503015312 | 53 | 134 | 0.0 | 0.0 | 0.00 | 0.67 | 0.00 | 82 | 1013.8 |
| 20260503014312 | 53 | 134 | 0.0 | 0.0 | 0.00 | 0.67 | 0.00 | 82 | 1013.9 |
| 20260503013312 | 53 | 134 | 0.0 | 0.0 | 0.00 | 0.67 | 0.00 | 82 | 1014.1 |
| 20260503012311 | 53 | 132 | 0.0 | 0.0 | 0.00 | 0.67 | 0.00 | 82 | 1014.2 |
| 20260503011311 | 53 | 134 | 0.0 | 0.0 | 0.00 | 0.67 | 0.00 | 82 | 1014.3 |
| 20260503010313 | 53 | 134 | 0.0 | 0.0 | 0.00 | 0.67 | 0.00 | 82 | 1014.4 |
| 20260503005312 | 53 | 133 | 0.0 | 1.0 | 0.00 | 0.67 | 0.00 | 82 | 1014.6 |
| 20260503004312 | 53 | 132 | 0.0 | 0.0 | 0.00 | 0.67 | 0.00 | 80 | 1014.5 |
| 20260503003312 | 53 | 132 | 0.0 | 0.0 | 0.00 | 0.67 | 0.00 | 80 | 1014.8 |
| 20260503002311 | 53 | 133 | 0.0 | 1.0 | 0.00 | 0.67 | 0.00 | 80 | 1014.7 |
| 20260503001311 | 54 | 132 | 0.0 | 0.0 | 0.00 | 0.67 | 0.00 | 77 | 1014.7 |
| 20260503000311 | 54 | 134 | 0.0 | 0.0 | 0.00 | 0.67 | 0.00 | 78 | 1014.9 |
| 20260502235312 | 54 | 132 | 0.0 | 0.0 | 0.00 | 0.67 | 0.00 | 79 | 1015.0 |
| 20260502234312 | 54 | 134 | 0.0 | 0.0 | 0.00 | 0.67 | 0.00 | 80 | 1015.0 |
| 20260502233311 | 53 | 134 | 0.0 | 0.0 | 0.00 | 0.67 | 0.00 | 79 | 1014.9 |
| 20260502232312 | 54 | 132 | 0.0 | 0.0 | 0.00 | 0.67 | 0.00 | 79 | 1014.9 |
| 20260502231312 | 54 | 134 | 0.0 | 0.0 | 0.00 | 0.67 | 0.00 | 79 | 1015.0 |
| 20260502230312 | 54 | 132 | 0.0 | 0.0 | 0.00 | 0.67 | 0.00 | 79 | 1015.1 |
| 20260502225311 | 53 | 134 | 0.0 | 0.0 | 0.00 | 0.67 | 0.00 | 80 | 1015.2 |
| 20260502224311 | 55 | 134 | 0.0 | 0.0 | 0.00 | 0.67 | 0.00 | 78 | 1014.8 |